HAZ4602 ZUUU-ZYTX

Flight info

Callsign HAZ4602
Flight time 3h 20m
Altitude 35100
Route GURET9W GURET W233 AGULU W81 APIMI W275 NSH G212 VYK W34 PAMRU W244 IGMOR W36 ENVAV W243 OTBUL W35 CHG A575 OMDUS OMD71A
Aircraft A321/M-SDE3FGHIRWY/LB1

Departure

Time 2026-04-25 06:28
Airport Chengdu Shuangliu International Airport (ZUUU)

Arrival

Time 2026-04-25 09:48
Airport Shenyang Taoxian International Airport (ZYTX)
Time Latitude Longitude Altitude Speed Heading
2026-04-25 06:04 30.57236 103.95175 1689 ft 0 kts 57°
2026-04-25 06:18 30.57229 103.95165 1689 ft 2 kts 45°
2026-04-25 06:18 30.57219 103.95152 1689 ft 2 kts 48°
2026-04-25 06:19 30.57208 103.95140 1689 ft 2 kts 43°
2026-04-25 06:19 30.57197 103.95129 1689 ft 2 kts 38°
2026-04-25 06:19 30.57185 103.95118 1689 ft 2 kts 34°
2026-04-25 06:19 30.57172 103.95109 1689 ft 2 kts 29°
2026-04-25 06:20 30.57159 103.95101 1689 ft 2 kts 25°
2026-04-25 06:20 30.57147 103.95095 1689 ft 0 kts 21°
2026-04-25 06:21 30.57148 103.95095 1689 ft 0 kts 21°
2026-04-25 06:22 30.57154 103.95098 1689 ft 1 kts 19°
2026-04-25 06:22 30.57178 103.95094 1689 ft 4 kts 331°
2026-04-25 06:22 30.57200 103.95066 1689 ft 5 kts 289°
2026-04-25 06:22 30.57213 103.95024 1689 ft 6 kts 291°
2026-04-25 06:23 30.57237 103.94958 1689 ft 10 kts 291°
2026-04-25 06:23 30.57270 103.94861 1689 ft 14 kts 292°
2026-04-25 06:23 30.57306 103.94752 1689 ft 14 kts 288°
2026-04-25 06:23 30.57366 103.94691 1689 ft 13 kts
2026-04-25 06:24 30.57453 103.94727 1689 ft 14 kts 22°
2026-04-25 06:24 30.57566 103.94782 1689 ft 19 kts 22°
2026-04-25 06:24 30.57703 103.94844 1689 ft 23 kts 21°
2026-04-25 06:24 30.57864 103.94920 1690 ft 25 kts 22°
2026-04-25 06:25 30.58038 103.95002 1690 ft 28 kts 21°
2026-04-25 06:25 30.58229 103.95089 1690 ft 30 kts 21°
2026-04-25 06:25 30.58438 103.95187 1690 ft 34 kts 21°
2026-04-25 06:25 30.58666 103.95293 1690 ft 33 kts 22°
2026-04-25 06:26 30.58873 103.95388 1690 ft 30 kts 20°
2026-04-25 06:26 30.59059 103.95476 1690 ft 27 kts 22°
2026-04-25 06:26 30.59222 103.95552 1690 ft 18 kts 22°
2026-04-25 06:26 30.59302 103.95525 1690 ft 9 kts 297°
2026-04-25 06:27 30.59332 103.95453 1690 ft 10 kts 291°
2026-04-25 06:27 30.59323 103.95383 1690 ft 9 kts 204°
2026-04-25 06:27 30.59317 103.95380 1690 ft 2 kts 202°
2026-04-25 06:27 30.59071 103.95268 1690 ft 72 kts 202°
2026-04-25 06:28 30.58400 103.94955 1690 ft 133 kts 202°
2026-04-25 06:28 30.57373 103.94479 1748 ft 176 kts 203°
2026-04-25 06:28 30.56235 103.93945 2295 ft 177 kts 201°
2026-04-25 06:28 30.55100 103.93384 2889 ft 180 kts 202°
2026-04-25 06:29 30.53953 103.92801 3490 ft 182 kts 202°
2026-04-25 06:29 30.52823 103.92233 3926 ft 178 kts 201°
2026-04-25 06:29 30.51669 103.91655 4271 ft 179 kts 201°
2026-04-25 06:29 30.50532 103.91089 4613 ft 180 kts 201°
2026-04-25 06:30 30.49400 103.90431 4920 ft 186 kts 218°
2026-04-25 06:30 30.48679 103.89157 5116 ft 200 kts 255°
2026-04-25 06:30 30.48743 103.87509 5326 ft 214 kts 291°
2026-04-25 06:30 30.49688 103.86164 5534 ft 226 kts 329°
2026-04-25 06:31 30.51236 103.85766 5752 ft 235 kts
2026-04-25 06:31 30.52815 103.86416 5949 ft 250 kts 25°
2026-04-25 06:31 30.54473 103.87225 6220 ft 265 kts 23°
2026-04-25 06:31 30.56231 103.88039 6509 ft 281 kts 22°
2026-04-25 06:32 30.58091 103.88882 6992 ft 289 kts 22°
2026-04-25 06:32 30.59976 103.89728 7577 ft 292 kts 22°
2026-04-25 06:32 30.61884 103.90585 8165 ft 296 kts 22°
2026-04-25 06:32 30.63802 103.91444 8735 ft 300 kts 22°
2026-04-25 06:33 30.65761 103.92323 9305 ft 304 kts 22°
2026-04-25 06:33 30.67740 103.93213 9906 ft 307 kts 22°
2026-04-25 06:33 30.69733 103.94109 10420 ft 312 kts 21°
2026-04-25 06:33 30.71788 103.95137 10702 ft 327 kts 32°
2026-04-25 06:34 30.73462 103.96948 10937 ft 339 kts 57°
2026-04-25 06:34 30.74476 103.99477 11177 ft 350 kts 71°
2026-04-25 06:34 30.75310 104.02168 11432 ft 363 kts 71°
2026-04-25 06:34 30.76179 104.04950 11714 ft 373 kts 71°
2026-04-25 06:35 30.77086 104.07806 12163 ft 378 kts 70°
2026-04-25 06:35 30.78009 104.10686 12662 ft 380 kts 70°
2026-04-25 06:35 30.78935 104.13559 13146 ft 383 kts 70°
2026-04-25 06:35 30.79866 104.16440 13596 ft 386 kts 69°
2026-04-25 06:36 30.80820 104.19389 14043 ft 389 kts 69°
2026-04-25 06:36 30.81770 104.22328 14496 ft 392 kts 69°
2026-04-25 06:36 30.82736 104.25314 14957 ft 394 kts 68°
2026-04-25 06:36 30.83696 104.28284 15393 ft 396 kts 68°
2026-04-25 06:37 30.84664 104.31284 15832 ft 399 kts 68°
2026-04-25 06:37 30.85635 104.34293 16266 ft 400 kts 68°
2026-04-25 06:37 30.86619 104.37346 16697 ft 403 kts 67°
2026-04-25 06:37 30.87523 104.40421 17103 ft 406 kts 70°
2026-04-25 06:38 30.88351 104.43552 17510 ft 408 kts 70°
2026-04-25 06:38 30.89171 104.46702 17904 ft 411 kts 70°
2026-04-25 06:38 30.90002 104.49899 18293 ft 413 kts 70°
2026-04-25 06:38 30.90839 104.53114 18684 ft 415 kts 70°
2026-04-25 06:39 30.91673 104.56316 19067 ft 418 kts 70°
2026-04-25 06:39 30.92511 104.59536 19458 ft 420 kts 70°
2026-04-25 06:39 30.93362 104.62814 19822 ft 422 kts 70°
2026-04-25 06:39 30.94214 104.66093 20194 ft 425 kts 70°
2026-04-25 06:40 30.95060 104.69360 20540 ft 428 kts 70°
2026-04-25 06:40 30.95925 104.72692 20900 ft 430 kts 70°
2026-04-25 06:40 30.96786 104.76015 21259 ft 432 kts 70°
2026-04-25 06:40 30.97656 104.79382 21611 ft 435 kts 69°
2026-04-25 06:41 30.98532 104.82772 21962 ft 437 kts 69°
2026-04-25 06:41 30.99403 104.86149 22304 ft 439 kts 69°
2026-04-25 06:41 31.00278 104.89548 22627 ft 441 kts 69°
2026-04-25 06:41 31.01176 104.92959 22963 ft 442 kts 67°
2026-04-25 06:42 31.02288 104.96328 23302 ft 441 kts 62°
2026-04-25 06:42 31.03630 104.99499 23642 ft 439 kts 56°
2026-04-25 06:42 31.05193 105.02536 23950 ft 440 kts 53°
2026-04-25 06:42 31.06849 105.05569 24247 ft 442 kts 52°
2026-04-25 06:43 31.08505 105.08566 24561 ft 443 kts 52°
2026-04-25 06:43 31.10183 105.11611 24850 ft 446 kts 52°
2026-04-25 06:43 31.11857 105.14661 25113 ft 448 kts 52°
2026-04-25 06:43 31.13524 105.17708 25397 ft 451 kts 52°
2026-04-25 06:44 31.15198 105.20778 25681 ft 453 kts 52°
2026-04-25 06:44 31.16893 105.23887 25970 ft 454 kts 52°
2026-04-25 06:44 31.18588 105.27003 26264 ft 456 kts 52°
2026-04-25 06:44 31.20302 105.30154 26543 ft 457 kts 53°
2026-04-25 06:45 31.21996 105.33275 26810 ft 459 kts 52°
2026-04-25 06:45 31.23698 105.36401 27073 ft 460 kts 52°
2026-04-25 06:45 31.25474 105.39540 27366 ft 460 kts 51°
2026-04-25 06:45 31.27254 105.42626 27627 ft 462 kts 51°
2026-04-25 06:46 31.29037 105.45715 27943 ft 461 kts 51°
2026-04-25 06:46 31.30839 105.48846 28320 ft 460 kts 51°
2026-04-25 06:46 31.32609 105.51932 28699 ft 458 kts 51°
2026-04-25 06:46 31.34370 105.55007 29060 ft 457 kts 51°
2026-04-25 06:47 31.36146 105.58115 29385 ft 456 kts 51°
2026-04-25 06:47 31.37884 105.61160 29717 ft 456 kts 50°
2026-04-25 06:47 31.39637 105.64234 30021 ft 455 kts 50°
2026-04-25 06:47 31.41398 105.67327 30321 ft 455 kts 51°
2026-04-25 06:48 31.43136 105.70383 30624 ft 454 kts 51°
2026-04-25 06:48 31.44895 105.73477 30938 ft 453 kts 51°
2026-04-25 06:48 31.46626 105.76524 31248 ft 452 kts 51°
2026-04-25 06:48 31.48350 105.79563 31570 ft 450 kts 50°
2026-04-25 06:49 31.50080 105.82615 31878 ft 449 kts 50°
2026-04-25 06:49 31.51799 105.85649 32175 ft 448 kts 50°
2026-04-25 06:49 31.53524 105.88695 32501 ft 446 kts 50°
2026-04-25 06:49 31.55240 105.91726 32788 ft 445 kts 50°
2026-04-25 06:50 31.56938 105.94725 33074 ft 444 kts 50°
2026-04-25 06:50 31.58627 105.97716 33342 ft 443 kts 50°
2026-04-25 06:50 31.60337 106.00742 33573 ft 442 kts 50°
2026-04-25 06:50 31.62023 106.03728 33746 ft 443 kts 50°
2026-04-25 06:51 31.63732 106.06755 33948 ft 444 kts 50°
2026-04-25 06:51 31.65422 106.09756 34145 ft 445 kts 49°
2026-04-25 06:51 31.67131 106.12792 34312 ft 445 kts 50°
2026-04-25 06:51 31.68840 106.15827 34504 ft 446 kts 49°
2026-04-25 06:52 31.70545 106.18860 34684 ft 446 kts 49°
2026-04-25 06:52 31.72240 106.21879 34857 ft 446 kts 50°
2026-04-25 06:52 31.73933 106.24895 35021 ft 447 kts 49°
2026-04-25 06:53 31.77355 106.30999 35105 ft 448 kts 49°
2026-04-25 06:53 31.80793 106.37138 35110 ft 449 kts 49°
2026-04-25 06:54 31.84191 106.43223 35115 ft 449 kts 49°
2026-04-25 06:54 31.87610 106.49352 35122 ft 448 kts 49°
2026-04-25 06:55 31.91027 106.55492 35121 ft 448 kts 49°
2026-04-25 06:55 31.94422 106.61600 35122 ft 448 kts 49°
2026-04-25 06:56 31.97826 106.67731 35120 ft 448 kts 50°
2026-04-25 06:56 32.01209 106.73836 35117 ft 447 kts 50°
2026-04-25 06:57 32.04617 106.79992 35123 ft 448 kts 50°
2026-04-25 06:57 32.08008 106.86128 35139 ft 448 kts 50°
2026-04-25 06:58 32.11399 106.92275 35146 ft 447 kts 50°
2026-04-25 06:58 32.14785 106.98424 35159 ft 447 kts 50°
2026-04-25 06:59 32.18159 107.04559 35152 ft 446 kts 50°
2026-04-25 06:59 32.21512 107.10667 35161 ft 445 kts 50°
2026-04-25 07:00 32.24755 107.16884 35153 ft 448 kts 54°
2026-04-25 07:00 32.27468 107.23539 35167 ft 454 kts 60°
2026-04-25 07:01 32.29692 107.30537 35160 ft 456 kts 62°
2026-04-25 07:01 32.31839 107.37552 35171 ft 455 kts 62°
2026-04-25 07:02 32.33976 107.44530 35182 ft 454 kts 62°
2026-04-25 07:02 32.36129 107.51552 35179 ft 454 kts 62°
2026-04-25 07:03 32.38275 107.58575 35175 ft 454 kts 62°
2026-04-25 07:03 32.40408 107.65564 35152 ft 453 kts 63°
2026-04-25 07:04 32.42533 107.72539 35147 ft 452 kts 62°
2026-04-25 07:04 32.44654 107.79515 35149 ft 451 kts 62°
2026-04-25 07:05 32.46761 107.86468 35171 ft 450 kts 62°
2026-04-25 07:05 32.49018 107.93335 35181 ft 442 kts 55°
2026-04-25 07:06 32.52438 107.99149 35202 ft 424 kts 39°
2026-04-25 07:06 32.56911 108.03529 35198 ft 410 kts 25°
2026-04-25 07:07 32.62017 108.06314 35180 ft 401 kts 13°
2026-04-25 07:07 32.67320 108.08234 35168 ft 401 kts 12°
2026-04-25 07:08 32.72676 108.10127 35146 ft 400 kts 12°
2026-04-25 07:08 32.78038 108.12024 35143 ft 402 kts 12°
2026-04-25 07:09 32.83380 108.13914 35134 ft 402 kts 12°
2026-04-25 07:09 32.88740 108.15813 35133 ft 401 kts 12°
2026-04-25 07:10 32.94073 108.17710 35132 ft 401 kts 12°
2026-04-25 07:10 32.99424 108.19610 35130 ft 401 kts 12°
2026-04-25 07:11 33.04767 108.21510 35127 ft 402 kts 12°
2026-04-25 07:11 33.10116 108.23417 35134 ft 402 kts 12°
2026-04-25 07:12 33.15505 108.25340 35152 ft 402 kts 12°
2026-04-25 07:12 33.23492 108.28192 35177 ft 401 kts 12°
2026-04-25 07:13 33.28848 108.30143 35188 ft 402 kts 14°
2026-04-25 07:13 33.34078 108.32594 35193 ft 406 kts 19°
2026-04-25 07:14 33.39157 108.35535 35198 ft 407 kts 21°
2026-04-25 07:14 33.44241 108.38552 35210 ft 407 kts 21°
2026-04-25 07:15 33.49318 108.41573 35225 ft 407 kts 20°
2026-04-25 07:15 33.54361 108.44576 35241 ft 406 kts 20°
2026-04-25 07:16 33.59433 108.47602 35246 ft 407 kts 20°
2026-04-25 07:16 33.64500 108.50627 35238 ft 407 kts 20°
2026-04-25 07:17 33.69540 108.53640 35233 ft 407 kts 20°
2026-04-25 07:17 33.74623 108.56685 35221 ft 406 kts 21°
2026-04-25 07:18 33.79668 108.59709 35212 ft 406 kts 21°
2026-04-25 07:18 33.84726 108.62746 35203 ft 407 kts 20°
2026-04-25 07:19 33.89766 108.65775 35181 ft 406 kts 21°
2026-04-25 07:19 33.94814 108.68814 35157 ft 407 kts 21°
2026-04-25 07:20 33.99898 108.71877 35124 ft 406 kts 21°
2026-04-25 07:20 34.04933 108.74916 35090 ft 407 kts 21°
2026-04-25 07:21 34.09970 108.77956 35078 ft 406 kts 21°
2026-04-25 07:21 34.15066 108.81013 35077 ft 406 kts 20°
2026-04-25 07:22 34.20228 108.83575 35068 ft 401 kts 15°
2026-04-25 07:22 34.25557 108.85501 35055 ft 398 kts
2026-04-25 07:23 34.30965 108.86772 35044 ft 396 kts
2026-04-25 07:23 34.36420 108.87689 35042 ft 396 kts
2026-04-25 07:24 34.41895 108.88584 35036 ft 396 kts
2026-04-25 07:24 34.47349 108.89473 35037 ft 396 kts
2026-04-25 07:25 34.52810 108.90365 35045 ft 396 kts
2026-04-25 07:25 34.58255 108.91350 35055 ft 398 kts
2026-04-25 07:26 34.63640 108.92922 35062 ft 400 kts 11°
2026-04-25 07:26 34.68961 108.94812 35070 ft 399 kts 12°
2026-04-25 07:27 34.74301 108.96734 35070 ft 400 kts 12°
2026-04-25 07:27 34.79653 108.98668 35073 ft 401 kts 12°
2026-04-25 07:28 34.84992 109.00662 35077 ft 401 kts 13°
2026-04-25 07:28 34.90265 109.02759 35083 ft 402 kts 13°
2026-04-25 07:29 34.95575 109.04865 35091 ft 401 kts 13°
2026-04-25 07:29 35.00899 109.06974 35098 ft 400 kts 13°
2026-04-25 07:30 35.06182 109.09067 35106 ft 401 kts 13°
2026-04-25 07:30 35.11493 109.11169 35122 ft 401 kts 13°
2026-04-25 07:31 35.16792 109.13274 35131 ft 401 kts 13°
2026-04-25 07:31 35.22089 109.15376 35138 ft 400 kts 13°
2026-04-25 07:32 35.27393 109.17487 35148 ft 400 kts 13°
2026-04-25 07:32 35.32668 109.19585 35142 ft 401 kts 13°
2026-04-25 07:33 35.37964 109.21697 35132 ft 402 kts 13°
2026-04-25 07:33 35.43282 109.23817 35249 ft 402 kts 13°
2026-04-25 07:34 35.45937 109.24880 35500 ft 401 kts 13°
2026-04-25 07:34 35.48600 109.25947 35729 ft 400 kts 13°
2026-04-25 07:34 35.51215 109.26993 35914 ft 399 kts 13°
2026-04-25 07:34 35.53855 109.28049 36095 ft 398 kts 13°
2026-04-25 07:35 35.56499 109.29108 36296 ft 397 kts 13°
2026-04-25 07:35 35.59119 109.30156 36447 ft 397 kts 13°
2026-04-25 07:35 35.61725 109.31200 36609 ft 396 kts 13°
2026-04-25 07:35 35.64343 109.32255 36738 ft 396 kts 13°
2026-04-25 07:36 35.66974 109.33310 36877 ft 395 kts 13°
2026-04-25 07:36 35.69562 109.34395 36990 ft 397 kts 15°
2026-04-25 07:36 35.72092 109.35752 37105 ft 401 kts 19°
2026-04-25 07:36 35.74582 109.37420 37114 ft 405 kts 24°
2026-04-25 07:37 35.79124 109.41531 37125 ft 414 kts 34°
2026-04-25 07:37 35.83115 109.46760 37131 ft 425 kts 44°
2026-04-25 07:38 35.86620 109.52611 37134 ft 426 kts 45°
2026-04-25 07:38 35.90081 109.58517 37147 ft 426 kts 46°
2026-04-25 07:39 35.93544 109.64433 37156 ft 426 kts 46°
2026-04-25 07:39 35.97001 109.70339 37162 ft 425 kts 46°
2026-04-25 07:40 36.00456 109.76255 37167 ft 425 kts 46°
2026-04-25 07:40 36.03893 109.82148 37163 ft 426 kts 46°
2026-04-25 07:41 36.07350 109.88084 37162 ft 425 kts 46°
2026-04-25 07:41 36.10791 109.94000 37153 ft 427 kts 46°
2026-04-25 07:42 36.14257 109.99970 37149 ft 425 kts 46°
2026-04-25 07:42 36.17693 110.05902 37142 ft 426 kts 46°
2026-04-25 07:43 36.21119 110.11838 37129 ft 426 kts 46°
2026-04-25 07:43 36.24554 110.17810 37117 ft 426 kts 46°
2026-04-25 07:44 36.27995 110.23796 37110 ft 427 kts 46°
2026-04-25 07:44 36.31420 110.29768 37106 ft 426 kts 46°
2026-04-25 07:45 36.34845 110.35745 37098 ft 427 kts 46°
2026-04-25 07:45 36.38289 110.41766 37090 ft 428 kts 46°
2026-04-25 07:46 36.41716 110.47768 37083 ft 427 kts 46°
2026-04-25 07:46 36.45143 110.53780 37077 ft 428 kts 46°
2026-04-25 07:47 36.48575 110.59815 37081 ft 427 kts 46°
2026-04-25 07:47 36.51989 110.65828 37096 ft 427 kts 46°
2026-04-25 07:48 36.55397 110.71837 37128 ft 428 kts 46°
2026-04-25 07:48 36.58810 110.77863 37141 ft 428 kts 46°
2026-04-25 07:49 36.62227 110.83913 37156 ft 427 kts 46°
2026-04-25 07:49 36.65636 110.89957 37166 ft 427 kts 46°
2026-04-25 07:50 36.69040 110.95998 37170 ft 429 kts 46°
2026-04-25 07:50 36.72646 111.01815 37171 ft 422 kts 41°
2026-04-25 07:51 36.76545 111.07265 37180 ft 422 kts 39°
2026-04-25 07:51 36.80465 111.12695 37189 ft 421 kts 39°
2026-04-25 07:52 36.84394 111.18143 37190 ft 421 kts 39°
2026-04-25 07:52 36.88292 111.23563 37189 ft 421 kts 39°
2026-04-25 07:53 36.92180 111.28979 37182 ft 421 kts 39°
2026-04-25 07:53 36.96077 111.34421 37170 ft 421 kts 39°
2026-04-25 07:54 36.99998 111.39897 37151 ft 421 kts 39°
2026-04-25 07:54 37.03883 111.45340 37143 ft 422 kts 39°
2026-04-25 07:55 37.07799 111.50831 37133 ft 423 kts 39°
2026-04-25 07:55 37.11694 111.56301 37134 ft 423 kts 39°
2026-04-25 07:56 37.15614 111.61816 37123 ft 423 kts 39°
2026-04-25 07:56 37.19515 111.67313 37112 ft 423 kts 40°
2026-04-25 07:57 37.21452 111.70055 36927 ft 422 kts 40°
2026-04-25 07:57 37.23333 111.72899 37053 ft 426 kts 43°
2026-04-25 07:57 37.26787 111.79058 37090 ft 437 kts 49°
2026-04-25 07:58 37.29752 111.85721 37100 ft 442 kts 53°
2026-04-25 07:58 37.32563 111.92575 37098 ft 444 kts 54°
2026-04-25 07:59 37.35379 111.99484 37110 ft 444 kts 54°
2026-04-25 07:59 37.38177 112.06358 37098 ft 445 kts 54°
2026-04-25 08:00 37.40989 112.13261 37111 ft 444 kts 54°
2026-04-25 08:00 37.43797 112.20174 37110 ft 443 kts 54°
2026-04-25 08:01 37.46598 112.27081 37103 ft 444 kts 53°
2026-04-25 08:01 37.49386 112.33970 37101 ft 445 kts 54°
2026-04-25 08:02 37.52186 112.40903 37089 ft 444 kts 53°
2026-04-25 08:02 37.54973 112.47822 37088 ft 446 kts 54°
2026-04-25 08:03 37.57769 112.54778 37081 ft 444 kts 53°
2026-04-25 08:03 37.60537 112.61676 37080 ft 443 kts 54°
2026-04-25 08:04 37.63314 112.68609 37082 ft 444 kts 54°
2026-04-25 08:04 37.66101 112.75559 37071 ft 446 kts 54°
2026-04-25 08:05 37.68868 112.82487 37082 ft 444 kts 54°
2026-04-25 08:05 37.71637 112.89426 37086 ft 444 kts 54°
2026-04-25 08:06 37.74385 112.96349 37099 ft 443 kts 54°
2026-04-25 08:06 37.77146 113.03312 37101 ft 444 kts 54°
2026-04-25 08:07 37.79912 113.10298 37117 ft 446 kts 54°
2026-04-25 08:07 37.82676 113.17297 37122 ft 447 kts 54°
2026-04-25 08:08 37.85432 113.24297 37131 ft 445 kts 54°
2026-04-25 08:08 37.88183 113.31290 37129 ft 444 kts 54°
2026-04-25 08:09 37.90925 113.38271 37104 ft 444 kts 54°
2026-04-25 08:09 37.93650 113.45233 37101 ft 445 kts 54°
2026-04-25 08:10 37.96394 113.52271 37081 ft 447 kts 54°
2026-04-25 08:10 37.99117 113.59296 37064 ft 446 kts 54°
2026-04-25 08:11 38.01839 113.66335 37045 ft 445 kts 55°
2026-04-25 08:11 38.04544 113.73334 37039 ft 446 kts 55°
2026-04-25 08:12 38.07260 113.80385 37011 ft 447 kts 55°
2026-04-25 08:12 38.09981 113.87454 36996 ft 447 kts 55°
2026-04-25 08:13 38.12707 113.94555 36972 ft 447 kts 55°
2026-04-25 08:14 38.16765 114.05150 36943 ft 447 kts 55°
2026-04-25 08:14 38.19470 114.12241 36945 ft 446 kts 55°
2026-04-25 08:15 38.22178 114.19324 36947 ft 447 kts 55°
2026-04-25 08:15 38.24883 114.26400 36941 ft 448 kts 55°
2026-04-25 08:16 38.27593 114.33511 36938 ft 447 kts 55°
2026-04-25 08:16 38.30305 114.40642 36941 ft 448 kts 55°
2026-04-25 08:17 38.32999 114.47744 36942 ft 448 kts 55°
2026-04-25 08:17 38.35693 114.54856 36945 ft 448 kts 56°
2026-04-25 08:18 38.38390 114.61989 36943 ft 448 kts 55°
2026-04-25 08:18 38.41079 114.69121 36941 ft 449 kts 56°
2026-04-25 08:19 38.43757 114.76281 36946 ft 450 kts 56°
2026-04-25 08:19 38.46455 114.83499 36935 ft 451 kts 56°
2026-04-25 08:20 38.49154 114.90716 36937 ft 452 kts 56°
2026-04-25 08:20 38.51837 114.97905 36934 ft 452 kts 56°
2026-04-25 08:21 38.54527 115.05138 36933 ft 451 kts 57°
2026-04-25 08:21 38.57208 115.12388 36931 ft 452 kts 57°
2026-04-25 08:22 38.59872 115.19643 36934 ft 454 kts 57°
2026-04-25 08:22 38.62530 115.26881 36928 ft 453 kts 57°
2026-04-25 08:23 38.65218 115.34189 36931 ft 453 kts 56°
2026-04-25 08:23 38.67892 115.41464 36925 ft 455 kts 57°
2026-04-25 08:24 38.70552 115.48731 36932 ft 454 kts 57°
2026-04-25 08:24 38.73455 115.55874 36935 ft 448 kts 51°
2026-04-25 08:25 38.76585 115.62686 36935 ft 447 kts 51°
2026-04-25 08:25 38.79752 115.69546 36934 ft 449 kts 52°
2026-04-25 08:26 38.82921 115.76433 36938 ft 451 kts 52°
2026-04-25 08:26 38.86078 115.83326 36937 ft 450 kts 52°
2026-04-25 08:27 38.89236 115.90235 36933 ft 451 kts 52°
2026-04-25 08:27 38.92415 115.97205 36930 ft 451 kts 52°
2026-04-25 08:28 38.95562 116.04124 36930 ft 451 kts 52°
2026-04-25 08:28 38.98721 116.11076 36929 ft 453 kts 52°
2026-04-25 08:29 39.01886 116.18061 36935 ft 453 kts 52°
2026-04-25 08:29 39.05036 116.25028 36940 ft 452 kts 52°
2026-04-25 08:30 39.08173 116.31977 36934 ft 452 kts 52°
2026-04-25 08:30 39.11328 116.38979 36929 ft 452 kts 52°
2026-04-25 08:31 39.14460 116.45956 36935 ft 453 kts 53°
2026-04-25 08:31 39.16962 116.53478 36933 ft 466 kts 67°
2026-04-25 08:32 39.18028 116.61767 36935 ft 478 kts 82°
2026-04-25 08:32 39.17493 116.70370 36933 ft 489 kts 96°
2026-04-25 08:33 39.16124 116.78967 36924 ft 490 kts 97°
2026-04-25 08:33 39.14749 116.87498 36930 ft 489 kts 97°
2026-04-25 08:34 39.13415 116.96006 36932 ft 488 kts 97°
2026-04-25 08:34 39.12154 117.04598 36932 ft 487 kts 95°
2026-04-25 08:35 39.11059 117.13106 36937 ft 486 kts 95°
2026-04-25 08:35 39.09937 117.21692 36944 ft 484 kts 95°
2026-04-25 08:36 39.08762 117.30182 36948 ft 486 kts 97°
2026-04-25 08:36 39.06964 117.38609 36954 ft 490 kts 105°
2026-04-25 08:37 39.04387 117.46651 36953 ft 492 kts 112°
2026-04-25 08:37 39.01409 117.54549 36955 ft 492 kts 112°
2026-04-25 08:38 38.98422 117.62454 36963 ft 492 kts 112°
2026-04-25 08:38 38.95466 117.70312 36964 ft 490 kts 113°
2026-04-25 08:39 38.92517 117.78149 36966 ft 490 kts 113°
2026-04-25 08:39 38.89552 117.86011 36969 ft 490 kts 113°
2026-04-25 08:40 38.86576 117.93877 36972 ft 489 kts 113°
2026-04-25 08:40 38.83881 118.01776 36976 ft 486 kts 107°
2026-04-25 08:41 38.81921 118.10034 36982 ft 482 kts 99°
2026-04-25 08:41 38.80604 118.18353 36984 ft 479 kts 97°
2026-04-25 08:42 38.79671 118.26759 36979 ft 471 kts 83°
2026-04-25 08:42 38.80068 118.30821 36979 ft 461 kts 70°
2026-04-25 08:42 38.81128 118.34650 36984 ft 452 kts 58°
2026-04-25 08:42 38.82749 118.38022 36983 ft 442 kts 46°
2026-04-25 08:43 38.84829 118.40847 36988 ft 433 kts 34°
2026-04-25 08:43 38.89910 118.44648 36996 ft 422 kts 18°
2026-04-25 08:44 38.95338 118.47515 36984 ft 422 kts 17°
2026-04-25 08:44 39.00827 118.50043 36985 ft 420 kts 12°
2026-04-25 08:45 39.06471 118.51933 36987 ft 418 kts
2026-04-25 08:45 39.12117 118.53651 36982 ft 418 kts
2026-04-25 08:46 39.17786 118.55373 36979 ft 419 kts
2026-04-25 08:46 39.23441 118.57098 36974 ft 419 kts
2026-04-25 08:47 39.29118 118.58833 36968 ft 419 kts
2026-04-25 08:47 39.34794 118.60569 36971 ft 420 kts
2026-04-25 08:48 39.40453 118.62304 36968 ft 420 kts
2026-04-25 08:48 39.46153 118.64055 36962 ft 421 kts
2026-04-25 08:49 39.51859 118.65807 36957 ft 422 kts
2026-04-25 08:49 39.57561 118.67560 36953 ft 422 kts
2026-04-25 08:50 39.63260 118.69318 36956 ft 422 kts
2026-04-25 08:50 39.68944 118.71369 36949 ft 426 kts 14°
2026-04-25 08:51 39.74449 118.74276 36941 ft 431 kts 20°
2026-04-25 08:51 39.79724 118.78065 36943 ft 437 kts 27°
2026-04-25 08:52 39.84705 118.82562 36940 ft 440 kts 31°
2026-04-25 08:52 39.89682 118.87247 36940 ft 440 kts 31°
2026-04-25 08:53 39.94609 118.91894 36941 ft 441 kts 31°
2026-04-25 08:53 39.99568 118.96571 36947 ft 442 kts 31°
2026-04-25 08:54 40.04554 119.01278 36937 ft 444 kts 31°
2026-04-25 08:54 40.09515 119.05970 36940 ft 443 kts 31°
2026-04-25 08:55 40.14511 119.10703 36942 ft 443 kts 30°
2026-04-25 08:55 40.19472 119.15411 36944 ft 443 kts 31°
2026-04-25 08:56 40.24478 119.20147 36960 ft 444 kts 30°
2026-04-25 08:56 40.29485 119.24814 36975 ft 445 kts 30°
2026-04-25 08:57 40.34506 119.29494 36986 ft 444 kts 30°
2026-04-25 08:57 40.39535 119.34199 36981 ft 446 kts 30°
2026-04-25 08:58 40.44603 119.38947 36974 ft 447 kts 30°
2026-04-25 08:58 40.49658 119.43691 36967 ft 447 kts 30°
2026-04-25 08:59 40.54707 119.48438 36964 ft 447 kts 30°
2026-04-25 08:59 40.59751 119.53191 36963 ft 448 kts 30°
2026-04-25 09:00 40.64788 119.57945 36963 ft 448 kts 30°
2026-04-25 09:00 40.69859 119.62743 36964 ft 449 kts 30°
2026-04-25 09:01 40.74912 119.67535 36964 ft 450 kts 30°
2026-04-25 09:01 40.79995 119.72360 36964 ft 451 kts 30°
2026-04-25 09:02 40.85070 119.77187 36960 ft 451 kts 31°
2026-04-25 09:02 40.90150 119.82029 36952 ft 453 kts 31°
2026-04-25 09:03 40.95259 119.86908 36951 ft 454 kts 31°
2026-04-25 09:03 41.00335 119.91767 36949 ft 455 kts 31°
2026-04-25 09:04 41.05476 119.96694 36952 ft 455 kts 31°
2026-04-25 09:04 41.10563 120.01581 36950 ft 455 kts 31°
2026-04-25 09:05 41.15670 120.06496 36941 ft 455 kts 31°
2026-04-25 09:05 41.20802 120.11446 36940 ft 456 kts 31°
2026-04-25 09:06 41.25909 120.16380 36933 ft 456 kts 31°
2026-04-25 09:06 41.31049 120.21355 36931 ft 457 kts 31°
2026-04-25 09:07 41.36191 120.26340 36917 ft 457 kts 31°
2026-04-25 09:07 41.41283 120.31284 36910 ft 457 kts 31°
2026-04-25 09:08 41.46410 120.36328 36899 ft 459 kts 34°
2026-04-25 09:08 41.50736 120.42634 36899 ft 471 kts 52°
2026-04-25 09:09 41.53568 120.50584 36895 ft 480 kts 70°
2026-04-25 09:09 41.54602 120.59350 36886 ft 485 kts 84°
2026-04-25 09:10 41.55009 120.68326 36882 ft 486 kts 85°
2026-04-25 09:10 41.55428 120.77303 36871 ft 486 kts 85°
2026-04-25 09:11 41.56105 120.90797 36868 ft 486 kts 84°
2026-04-25 09:11 41.56558 120.99779 36854 ft 486 kts 84°
2026-04-25 09:12 41.57004 121.08728 36864 ft 486 kts 84°
2026-04-25 09:12 41.57441 121.17704 36867 ft 484 kts 84°
2026-04-25 09:13 41.57744 121.26633 36870 ft 485 kts 86°
2026-04-25 09:13 41.57977 121.35622 36874 ft 484 kts 86°
2026-04-25 09:14 41.58214 121.44566 36870 ft 484 kts 86°
2026-04-25 09:14 41.58334 121.49021 36753 ft 484 kts 86°
2026-04-25 09:14 41.58454 121.53459 36523 ft 482 kts 86°
2026-04-25 09:15 41.58573 121.57913 36296 ft 480 kts 86°
2026-04-25 09:15 41.58690 121.62340 36061 ft 478 kts 86°
2026-04-25 09:15 41.58805 121.66770 35824 ft 475 kts 86°
2026-04-25 09:15 41.58919 121.71165 35585 ft 474 kts 86°
2026-04-25 09:16 41.59029 121.75537 35348 ft 474 kts 86°
2026-04-25 09:16 41.59140 121.79947 35109 ft 474 kts 86°
2026-04-25 09:16 41.59247 121.84319 34736 ft 475 kts 86°
2026-04-25 09:16 41.59354 121.88698 34206 ft 475 kts 86°
2026-04-25 09:17 41.59565 121.97480 32894 ft 475 kts 87°
2026-04-25 09:17 41.59665 122.01855 32190 ft 475 kts 87°
2026-04-25 09:17 41.59736 122.06280 31495 ft 475 kts 89°
2026-04-25 09:18 41.59642 122.10680 30776 ft 476 kts 92°
2026-04-25 09:18 41.59358 122.15055 30026 ft 477 kts 96°
2026-04-25 09:18 41.58911 122.19392 29272 ft 477 kts 98°
2026-04-25 09:18 41.58425 122.23739 28497 ft 476 kts 98°
2026-04-25 09:19 41.57927 122.28130 27689 ft 476 kts 98°
2026-04-25 09:19 41.57439 122.32445 26886 ft 476 kts 98°
2026-04-25 09:19 41.56949 122.36790 26356 ft 476 kts 98°
2026-04-25 09:19 41.56460 122.41131 25834 ft 474 kts 98°
2026-04-25 09:20 41.55971 122.45478 25303 ft 469 kts 98°
2026-04-25 09:20 41.55491 122.49740 24755 ft 465 kts 98°
2026-04-25 09:20 41.55014 122.53955 24219 ft 461 kts 98°
2026-04-25 09:20 41.54539 122.58156 23685 ft 457 kts 98°
2026-04-25 09:21 41.54065 122.62319 23158 ft 453 kts 98°
2026-04-25 09:21 41.53594 122.66451 22627 ft 449 kts 99°
2026-04-25 09:21 41.53128 122.70534 22101 ft 445 kts 99°
2026-04-25 09:21 41.52665 122.74564 21578 ft 441 kts 99°
2026-04-25 09:22 41.52198 122.78599 21046 ft 437 kts 99°
2026-04-25 09:22 41.51736 122.82574 20518 ft 433 kts 99°
2026-04-25 09:22 41.51280 122.86465 20000 ft 436 kts 99°
2026-04-25 09:22 41.50802 122.90550 19459 ft 451 kts 99°
2026-04-25 09:23 41.50312 122.94731 18892 ft 451 kts 98°
2026-04-25 09:23 41.49834 122.98808 18341 ft 449 kts 98°
2026-04-25 09:23 41.49350 123.02915 17782 ft 446 kts 99°
2026-04-25 09:23 41.48877 123.06930 17231 ft 442 kts 99°
2026-04-25 09:24 41.48397 123.10983 16671 ft 439 kts 99°
2026-04-25 09:24 41.47921 123.14954 16121 ft 435 kts 100°
2026-04-25 09:24 41.47450 123.18887 15578 ft 431 kts 99°
2026-04-25 09:24 41.47311 123.22839 15004 ft 429 kts 88°
2026-04-25 09:25 41.47742 123.26756 14456 ft 425 kts 76°
2026-04-25 09:25 41.48515 123.30510 13912 ft 420 kts 73°
2026-04-25 09:25 41.49349 123.34205 13380 ft 416 kts 72°
2026-04-25 09:25 41.50196 123.37889 12829 ft 412 kts 71°
2026-04-25 09:26 41.51202 123.41396 12284 ft 408 kts 65°
2026-04-25 09:26 41.52449 123.44790 11753 ft 403 kts 60°
2026-04-25 09:26 41.53780 123.48048 11231 ft 399 kts 59°
2026-04-25 09:26 41.55109 123.51244 10893 ft 388 kts 59°
2026-04-25 09:27 41.56390 123.54295 10691 ft 374 kts 57°
2026-04-25 09:27 41.57801 123.57103 10513 ft 359 kts 50°
2026-04-25 09:27 41.59372 123.59648 10373 ft 345 kts 46°
2026-04-25 09:27 41.60938 123.62006 10203 ft 334 kts 45°
2026-04-25 09:28 41.62454 123.64263 10055 ft 321 kts 45°
2026-04-25 09:28 41.63921 123.66462 9792 ft 315 kts 46°
2026-04-25 09:28 41.65351 123.68612 9717 ft 302 kts 46°
2026-04-25 09:28 41.66711 123.70660 9663 ft 288 kts 46°
2026-04-25 09:29 41.68006 123.72609 9607 ft 276 kts 45°
2026-04-25 09:29 41.69259 123.74506 9431 ft 271 kts 46°
2026-04-25 09:29 41.70504 123.76402 9169 ft 270 kts 46°
2026-04-25 09:29 41.71735 123.78285 8881 ft 269 kts 46°
2026-04-25 09:30 41.72972 123.80171 8628 ft 268 kts 44°
2026-04-25 09:30 41.74407 123.81645 8399 ft 254 kts 16°
2026-04-25 09:30 41.76072 123.82001 8134 ft 235 kts 344°
2026-04-25 09:30 41.77573 123.81374 7802 ft 224 kts 326°
2026-04-25 09:31 41.78937 123.80386 7501 ft 219 kts 321°
2026-04-25 09:31 41.80193 123.79391 7407 ft 204 kts 321°
2026-04-25 09:31 41.81354 123.78384 7117 ft 192 kts 308°
2026-04-25 09:31 41.81952 123.76890 6549 ft 179 kts 271°
2026-04-25 09:32 41.81692 123.75356 5942 ft 170 kts 239°
2026-04-25 09:32 41.81007 123.74103 5357 ft 171 kts 231°
2026-04-25 09:32 41.80252 123.72889 4757 ft 169 kts 229°
2026-04-25 09:32 41.79503 123.71725 4353 ft 162 kts 229°
2026-04-25 09:33 41.78755 123.70586 4104 ft 162 kts 228°
2026-04-25 09:33 41.78018 123.69473 3899 ft 161 kts 227°
2026-04-25 09:33 41.77272 123.68351 3701 ft 163 kts 227°
2026-04-25 09:33 41.76503 123.67196 3496 ft 165 kts 227°
2026-04-25 09:34 41.75743 123.66054 3278 ft 164 kts 227°
2026-04-25 09:34 41.75002 123.64940 3097 ft 159 kts 227°
2026-04-25 09:34 41.74277 123.63850 2880 ft 158 kts 227°
2026-04-25 09:34 41.73554 123.62761 2660 ft 151 kts 227°
2026-04-25 09:35 41.72889 123.61758 2437 ft 139 kts 227°
2026-04-25 09:35 41.72246 123.60790 2261 ft 139 kts 226°
2026-04-25 09:35 41.71600 123.59818 2092 ft 139 kts 227°
2026-04-25 09:35 41.70963 123.58856 1924 ft 139 kts 226°
2026-04-25 09:36 41.70314 123.57878 1753 ft 140 kts 226°
2026-04-25 09:36 41.69673 123.56913 1578 ft 140 kts 227°
2026-04-25 09:36 41.69045 123.55964 1385 ft 130 kts 227°
2026-04-25 09:36 41.68446 123.55060 1217 ft 127 kts 227°
2026-04-25 09:37 41.67859 123.54176 1056 ft 127 kts 228°
2026-04-25 09:37 41.67292 123.53288 909 ft 126 kts 228°
2026-04-25 09:37 41.66701 123.52415 723 ft 126 kts 227°
2026-04-25 09:37 41.66115 123.51541 570 ft 126 kts 229°
2026-04-25 09:38 41.65541 123.50670 412 ft 123 kts 228°
2026-04-25 09:38 41.64974 123.49818 252 ft 122 kts 229°
2026-04-25 09:38 41.64407 123.48961 363 ft 129 kts 229°
2026-04-25 09:38 41.63816 123.48055 1131 ft 130 kts 228°
2026-04-25 09:39 41.63244 123.47194 1977 ft 125 kts 226°
2026-04-25 09:39 41.62700 123.46380 2550 ft 116 kts 226°
2026-04-25 09:39 41.62156 123.45570 2919 ft 122 kts 224°
2026-04-25 09:40 41.60321 123.45905 3029 ft 194 kts 135°
2026-04-25 09:40 41.60036 123.47758 3033 ft 224 kts 92°
2026-04-25 09:40 41.60287 123.49974 2991 ft 244 kts 92°
2026-04-25 09:40 41.60256 123.52237 2929 ft 245 kts 94°
2026-04-25 09:41 41.60700 123.54474 2965 ft 256 kts 62°
2026-04-25 09:41 41.61786 123.56418 2998 ft 259 kts 53°
2026-04-25 09:41 41.62885 123.58317 3006 ft 257 kts 58°
2026-04-25 09:41 41.63836 123.60311 3011 ft 251 kts 64°
2026-04-25 09:42 41.64742 123.62237 3015 ft 239 kts 55°
2026-04-25 09:42 41.65745 123.63862 3062 ft 217 kts 51°
2026-04-25 09:42 41.66714 123.65338 2845 ft 201 kts 51°
2026-04-25 09:42 41.67619 123.66675 2567 ft 190 kts 46°
2026-04-25 09:43 41.68722 123.67496 2213 ft 179 kts
2026-04-25 09:43 41.69854 123.67291 1970 ft 154 kts 320°
2026-04-25 09:43 41.70691 123.66446 1844 ft 149 kts 310°
2026-04-25 09:43 41.71481 123.65575 1783 ft 148 kts 309°
2026-04-25 09:44 41.72272 123.64674 1816 ft 148 kts 309°
2026-04-25 09:44 41.72917 123.63680 1858 ft 136 kts 283°
2026-04-25 09:44 41.73008 123.62515 1822 ft 122 kts 248°
2026-04-25 09:44 41.72578 123.61545 1756 ft 125 kts 229°
2026-04-25 09:45 41.72039 123.60596 1824 ft 127 kts 230°
2026-04-25 09:45 41.71505 123.59660 1869 ft 127 kts 228°
2026-04-25 09:45 41.70924 123.58746 1893 ft 130 kts 227°
2026-04-25 09:45 41.70329 123.57855 1861 ft 128 kts 225°
2026-04-25 09:46 41.69713 123.56976 1727 ft 132 kts 227°
2026-04-25 09:46 41.69139 123.56030 1534 ft 127 kts 229°
2026-04-25 09:46 41.68552 123.55141 1304 ft 130 kts 224°
2026-04-25 09:46 41.67936 123.54267 1087 ft 127 kts 226°
2026-04-25 09:47 41.67346 123.53381 897 ft 129 kts 228°
2026-04-25 09:47 41.66754 123.52492 729 ft 127 kts 229°
2026-04-25 09:47 41.66148 123.51592 587 ft 127 kts 227°
2026-04-25 09:47 41.65584 123.50744 413 ft 120 kts 229°
2026-04-25 09:48 41.65041 123.49916 262 ft 115 kts 229°
2026-04-25 09:48 41.64539 123.49155 206 ft 91 kts 229°
2026-04-25 09:48 41.64219 123.48672 206 ft 57 kts 229°
2026-04-25 09:48 41.64004 123.48349 206 ft 35 kts 229°
2026-04-25 09:49 41.63848 123.48113 206 ft 31 kts 228°
2026-04-25 09:49 41.63683 123.47954 206 ft 27 kts 206°
2026-04-25 09:49 41.63534 123.47896 206 ft 13 kts 161°
2026-04-25 09:49 41.63531 123.47997 206 ft 12 kts 52°
2026-04-25 09:50 41.63521 123.48099 206 ft 12 kts 136°
2026-04-25 09:50 41.63456 123.48177 206 ft 12 kts 139°
2026-04-25 09:50 41.63406 123.48248 206 ft 8 kts 156°
2026-04-25 09:50 41.63361 123.48263 206 ft 4 kts 168°
2026-04-25 09:51 41.63343 123.48268 206 ft 0 kts 169°
2026-04-25 09:51 41.63342 123.48268 206 ft 0 kts 169°